Time,TemperatureF,DewpointF,PressureIn,WindDirection,WindDirectionDegrees,WindSpeedMPH,WindSpeedGustMPH,Humidity,HourlyPrecipIn,Conditions,Clouds,dailyrainin,SolarRadiationWatts/m^2,SoftwareType,DateUTC
2013-09-05 00:00:00,60.0,56.0,-100.00,ESE,112,1.0,-999.0,87,-99.99,,,-99.99,0.000000,,2013-09-05 04:00:00,
2013-09-05 00:44:00,60.0,56.0,-100.00,ESE,112,1.0,-999.0,87,-99.99,,,-99.99,0.000000,,2013-09-05 04:44:00,
2013-09-05 00:53:00,60.0,56.0,-100.00,ESE,112,1.0,-999.0,87,-99.99,,,-99.99,0.000000,,2013-09-05 04:53:00,
2013-09-05 01:00:00,59.0,56.0,-100.00,SSW,202,0.0,-999.0,89,-99.99,,,-99.99,0.000000,,2013-09-05 05:00:00,
2013-09-05 01:43:00,59.0,56.0,-100.00,SSW,202,0.0,-999.0,89,-99.99,,,-99.99,0.000000,,2013-09-05 05:43:00,
2013-09-05 01:52:00,59.0,56.0,-100.00,SSW,202,0.0,-999.0,89,-99.99,,,-99.99,0.000000,,2013-09-05 05:52:00,
2013-09-05 02:00:00,59.0,56.0,-100.00,NE,45,0.0,-999.0,90,-99.99,,,-99.99,0.000000,,2013-09-05 06:00:00,
2013-09-05 02:42:00,59.0,56.0,-100.00,NE,45,0.0,-999.0,90,-99.99,,,-99.99,0.000000,,2013-09-05 06:42:00,
2013-09-05 02:52:00,59.0,56.0,-100.00,NE,45,0.0,-999.0,90,-99.99,,,-99.99,0.000000,,2013-09-05 06:52:00,
2013-09-05 03:00:00,58.0,55.0,-100.00,NE,45,0.0,-999.0,92,-99.99,,,-99.99,0.000000,,2013-09-05 07:00:00,
2013-09-05 03:42:00,58.0,55.0,-100.00,NE,45,0.0,-999.0,92,-99.99,,,-99.99,0.000000,,2013-09-05 07:42:00,
2013-09-05 03:52:00,58.0,55.0,-100.00,NE,45,0.0,-999.0,92,-99.99,,,-99.99,0.000000,,2013-09-05 07:52:00,
2013-09-05 04:00:00,57.0,55.0,-100.00,East,90,1.0,-999.0,93,-99.99,,,-99.99,0.000000,,2013-09-05 08:00:00,
2013-09-05 04:42:00,57.0,55.0,-100.00,East,90,1.0,-999.0,93,-99.99,,,-99.99,0.000000,,2013-09-05 08:42:00,
2013-09-05 04:52:00,57.0,55.0,-100.00,East,90,1.0,-999.0,93,-99.99,,,-99.99,0.000000,,2013-09-05 08:52:00,
2013-09-05 05:00:00,58.0,56.0,-100.00,ENE,67,0.0,-999.0,94,-99.99,,,-99.99,0.000000,,2013-09-05 09:00:00,
2013-09-05 05:43:00,58.0,56.0,-100.00,ENE,67,0.0,-999.0,94,-99.99,,,-99.99,0.000000,,2013-09-05 09:43:00,
2013-09-05 05:54:00,58.0,56.0,-100.00,ENE,67,0.0,-999.0,94,-99.99,,,-99.99,0.000000,,2013-09-05 09:54:00,
2013-09-05 06:00:00,59.0,57.0,-100.00,East,90,1.0,-999.0,94,-99.99,,,-99.99,0.000000,,2013-09-05 10:00:00,
2013-09-05 06:43:00,59.0,57.0,-100.00,East,90,1.0,-999.0,94,-99.99,,,-99.99,0.000000,,2013-09-05 10:43:00,
2013-09-05 06:53:00,59.0,57.0,-100.00,East,90,1.0,-999.0,94,-99.99,,,-99.99,0.000000,,2013-09-05 10:53:00,
2013-09-05 07:00:00,60.0,59.0,-100.00,East,90,1.0,-999.0,94,-99.99,,,-99.99,0.000000,,2013-09-05 11:00:00,
2013-09-05 07:43:00,60.0,59.0,-100.00,East,90,1.0,-999.0,94,-99.99,,,-99.99,0.000000,,2013-09-05 11:43:00,
2013-09-05 07:52:00,60.0,59.0,-100.00,East,90,1.0,-999.0,94,-99.99,,,-99.99,0.000000,,2013-09-05 11:52:00,
2013-09-05 08:00:00,61.0,58.0,-100.00,East,90,3.0,-999.0,90,-99.99,,,-99.99,22.040001,,2013-09-05 12:00:00,
2013-09-05 08:42:00,61.0,58.0,-100.00,East,90,3.0,-999.0,90,-99.99,,,-99.99,22.040001,,2013-09-05 12:42:00,
2013-09-05 08:52:00,61.0,58.0,-100.00,East,90,3.0,-999.0,90,-99.99,,,-99.99,22.040001,,2013-09-05 12:52:00,
2013-09-05 09:00:00,62.0,51.0,-100.00,East,90,4.0,-999.0,68,-99.99,,,-99.99,124.120003,,2013-09-05 13:00:00,
2013-09-05 09:42:00,62.0,51.0,-100.00,East,90,4.0,-999.0,68,-99.99,,,-99.99,124.120003,,2013-09-05 13:42:00,
2013-09-05 09:53:00,62.0,51.0,-100.00,East,90,4.0,-999.0,68,-99.99,,,-99.99,124.120003,,2013-09-05 13:53:00,
2013-09-05 10:00:00,65.0,48.0,-100.00,East,90,6.0,-999.0,55,-99.99,,,-99.99,324.799988,,2013-09-05 14:00:00,
2013-09-05 10:42:00,65.0,48.0,-100.00,East,90,6.0,-999.0,55,-99.99,,,-99.99,324.799988,,2013-09-05 14:42:00,
2013-09-05 10:52:00,65.0,48.0,-100.00,East,90,6.0,-999.0,55,-99.99,,,-99.99,324.799988,,2013-09-05 14:52:00,
2013-09-05 11:00:00,68.0,47.0,-100.00,East,90,5.0,-999.0,47,-99.99,,,-99.99,468.640015,,2013-09-05 15:00:00,
2013-09-05 11:44:00,68.0,47.0,-100.00,East,90,5.0,-999.0,47,-99.99,,,-99.99,468.640015,,2013-09-05 15:44:00,
2013-09-05 11:54:00,68.0,47.0,-100.00,East,90,5.0,-999.0,47,-99.99,,,-99.99,468.640015,,2013-09-05 15:54:00,
2013-09-05 12:00:00,71.0,47.0,-100.00,East,90,5.0,-999.0,42,-99.99,,,-99.99,641.479980,,2013-09-05 16:00:00,
2013-09-05 12:43:00,71.0,47.0,-100.00,East,90,5.0,-999.0,42,-99.99,,,-99.99,641.479980,,2013-09-05 16:43:00,
2013-09-05 12:54:00,71.0,47.0,-100.00,East,90,5.0,-999.0,42,-99.99,,,-99.99,641.479980,,2013-09-05 16:54:00,
2013-09-05 13:00:00,74.0,47.0,-100.00,ENE,67,6.0,-999.0,38,-99.99,,,-99.99,718.039978,,2013-09-05 17:00:00,
2013-09-05 13:43:00,74.0,47.0,-100.00,ENE,67,6.0,-999.0,38,-99.99,,,-99.99,718.039978,,2013-09-05 17:43:00,
2013-09-05 13:52:00,74.0,47.0,-100.00,ENE,67,6.0,-999.0,38,-99.99,,,-99.99,718.039978,,2013-09-05 17:52:00,
2013-09-05 14:00:00,76.0,43.0,-100.00,ENE,67,5.0,-999.0,30,-99.99,,,-99.99,763.280029,,2013-09-05 18:00:00,
2013-09-05 14:43:00,76.0,43.0,-100.00,ENE,67,5.0,-999.0,30,-99.99,,,-99.99,763.280029,,2013-09-05 18:43:00,
2013-09-05 14:52:00,76.0,43.0,-100.00,ENE,67,5.0,-999.0,30,-99.99,,,-99.99,763.280029,,2013-09-05 18:52:00,
2013-09-05 16:00:00,78.0,45.0,-100.00,NNE,22,7.0,-999.0,31,-99.99,,,-99.99,682.080017,,2013-09-05 20:00:00,
2013-09-05 16:43:00,78.0,45.0,-100.00,NNE,22,7.0,-999.0,31,-99.99,,,-99.99,682.080017,,2013-09-05 20:43:00,
2013-09-05 16:52:00,78.0,45.0,-100.00,NNE,22,7.0,-999.0,31,-99.99,,,-99.99,682.080017,,2013-09-05 20:52:00,
2013-09-05 17:00:00,77.0,46.0,-100.00,NNE,22,7.0,-999.0,33,-99.99,,,-99.99,564.919983,,2013-09-05 21:00:00,
2013-09-05 17:44:00,77.0,46.0,-100.00,NNE,22,7.0,-999.0,33,-99.99,,,-99.99,564.919983,,2013-09-05 21:44:00,
2013-09-05 17:54:00,77.0,46.0,-100.00,NNE,22,7.0,-999.0,33,-99.99,,,-99.99,564.919983,,2013-09-05 21:54:00,
2013-09-05 18:00:00,76.0,46.0,-100.00,NNE,22,7.0,-999.0,35,-99.99,,,-99.99,412.959991,,2013-09-05 22:00:00,
2013-09-05 18:43:00,76.0,46.0,-100.00,NNE,22,7.0,-999.0,35,-99.99,,,-99.99,412.959991,,2013-09-05 22:43:00,
2013-09-05 18:53:00,76.0,46.0,-100.00,NNE,22,7.0,-999.0,35,-99.99,,,-99.99,412.959991,,2013-09-05 22:53:00,
2013-09-05 19:00:00,73.0,47.0,-100.00,NNE,22,7.0,-999.0,39,-99.99,,,-99.99,243.600006,,2013-09-05 23:00:00,
2013-09-05 19:42:00,73.0,47.0,-100.00,NNE,22,7.0,-999.0,39,-99.99,,,-99.99,243.600006,,2013-09-05 23:42:00,
2013-09-05 19:53:00,73.0,47.0,-100.00,NNE,22,7.0,-999.0,39,-99.99,,,-99.99,243.600006,,2013-09-05 23:53:00,
2013-09-05 20:00:00,69.0,50.0,-100.00,NNE,22,4.0,-999.0,49,-99.99,,,-99.99,81.199997,,2013-09-06 00:00:00,
2013-09-05 20:42:00,69.0,50.0,-100.00,NNE,22,4.0,-999.0,49,-99.99,,,-99.99,81.199997,,2013-09-06 00:42:00,
2013-09-05 20:52:00,69.0,50.0,-100.00,NNE,22,4.0,-999.0,49,-99.99,,,-99.99,81.199997,,2013-09-06 00:52:00,
2013-09-05 21:00:00,61.0,51.0,-100.00,NE,45,3.0,-999.0,69,-99.99,,,-99.99,2.320000,,2013-09-06 01:00:00,
2013-09-05 21:42:00,61.0,51.0,-100.00,NE,45,3.0,-999.0,69,-99.99,,,-99.99,2.320000,,2013-09-06 01:42:00,
2013-09-05 21:52:00,61.0,51.0,-100.00,NE,45,3.0,-999.0,69,-99.99,,,-99.99,2.320000,,2013-09-06 01:52:00,
2013-09-05 22:00:00,58.0,52.0,-100.00,ENE,67,1.0,-999.0,79,-99.99,,,-99.99,0.000000,,2013-09-06 02:00:00,
2013-09-05 22:42:00,58.0,52.0,-100.00,ENE,67,1.0,-999.0,79,-99.99,,,-99.99,0.000000,,2013-09-06 02:42:00,
2013-09-05 22:52:00,58.0,52.0,-100.00,ENE,67,1.0,-999.0,79,-99.99,,,-99.99,0.000000,,2013-09-06 02:52:00,
2013-09-05 23:00:00,56.0,51.0,-100.00,ENE,67,0.0,-999.0,84,-99.99,,,-99.99,0.000000,,2013-09-06 03:00:00,
2013-09-05 23:44:00,56.0,51.0,-100.00,ENE,67,0.0,-999.0,84,-99.99,,,-99.99,0.000000,,2013-09-06 03:44:00,
2013-09-05 23:55:00,56.0,51.0,-100.00,ENE,67,0.0,-999.0,84,-99.99,,,-99.99,0.000000,,2013-09-06 03:55:00,